Météo par heure à Uige

Ce jour, 29 Septembre, Mardi

Heure Température Précipitation Vent Pression Humidité
00:00 +20°C° 0 mm 0 m/s 691 mmHg 89%
01:00 +21°C° 0 mm 1 m/s 691 mmHg 90%
02:00 +19°C° 0.1 mm 0 m/s 691 mmHg 91%
03:00 +19°C° 0.1 mm 0 m/s 690 mmHg 92%
04:00 +18°C° 0.1 mm 0 m/s 690 mmHg 94%
05:00 +19°C° 0 mm 0 m/s 691 mmHg 93%
06:00 +19°C° 0 mm 0 m/s 692 mmHg 91%
07:00 +21°C° 0 mm 1 m/s 692 mmHg 89%
08:00 +24°C° 0 mm 1 m/s 693 mmHg 80%
09:00 +26°C° 0 mm 1 m/s 693 mmHg 71%
10:00 +28°C° 0 mm 1 m/s 693 mmHg 62%
11:00 +29°C° 0 mm 2 m/s 692 mmHg 59%
12:00 +30°C° 0 mm 2 m/s 692 mmHg 55%
13:00 +30°C° 0 mm 2 m/s 691 mmHg 52%
14:00 +31°C° 0 mm 2 m/s 690 mmHg 51%
15:00 +31°C° 0 mm 2 m/s 690 mmHg 50%
16:00 +31°C° 0 mm 2 m/s 689 mmHg 49%
17:00 +29°C° 0 mm 2 m/s 689 mmHg 53%
18:00 +28°C° 0 mm 1 m/s 690 mmHg 58%
19:00 +26°C° 0 mm 1 m/s 691 mmHg 63%
20:00 +25°C° 0 mm 1 m/s 691 mmHg 67%
21:00 +24°C° 0 mm 1 m/s 691 mmHg 71%
22:00 +24°C° 0 mm 1 m/s 692 mmHg 76%
23:00 +23°C° 0.1 mm 1 m/s 691 mmHg 80%

Demain, 30 Septembre, Mercredi

Heure Température Précipitation Vent Pression Humidité
00:00 +22°C° 0.1 mm 1 m/s 691 mmHg 85%
01:00 +21°C° 0.1 mm 1 m/s 691 mmHg 90%
02:00 +21°C° 0.2 mm 1 m/s 691 mmHg 90%
03:00 +21°C° 0.2 mm 1 m/s 690 mmHg 91%
04:00 +21°C° 0.2 mm 1 m/s 690 mmHg 91%
05:00 +22°C° 0 mm 1 m/s 691 mmHg 90%
06:00 +22°C° 0 mm 1 m/s 691 mmHg 88%
07:00 +22°C° 0 mm 1 m/s 692 mmHg 86%
08:00 +22°C° 0 mm 0 m/s 692 mmHg 79%
09:00 +24°C° 0 mm 0 m/s 693 mmHg 71%
10:00 +26°C° 0 mm 0 m/s 693 mmHg 64%
11:00 +29°C° 0.6 mm 1 m/s 693 mmHg 59%
12:00 +31°C° 0.6 mm 1 m/s 692 mmHg 55%
13:00 +33°C° 0.6 mm 1 m/s 692 mmHg 50%
14:00 +30°C° 1.1 mm 1 m/s 691 mmHg 59%
15:00 +28°C° 1.1 mm 1 m/s 690 mmHg 67%
16:00 +26°C° 1.1 mm 2 m/s 689 mmHg 75%
17:00 +25°C° 0.3 mm 1 m/s 689 mmHg 79%
18:00 +24°C° 0.3 mm 1 m/s 689 mmHg 83%
19:00 +23°C° 0.3 mm 1 m/s 690 mmHg 87%
20:00 +23°C° 0 mm 1 m/s 690 mmHg 87%
21:00 +23°C° 0 mm 1 m/s 690 mmHg 88%
22:00 +23°C° 0 mm 1 m/s 691 mmHg 89%
23:00 +22°C° 0 mm 1 m/s 691 mmHg 90%

Après-demain, 1 Octobre, Jeudi

Heure Température Précipitation Vent Pression Humidité
00:00 +22°C° 0 mm 1 m/s 691 mmHg 90%
01:00 +22°C° 0 mm 1 m/s 691 mmHg 91%
02:00 +22°C° 0 mm 1 m/s 690 mmHg 92%
03:00 +21°C° 0 mm 1 m/s 690 mmHg 92%
04:00 +21°C° 0 mm 1 m/s 689 mmHg 93%
05:00 +21°C° 0 mm 1 m/s 690 mmHg 92%
06:00 +21°C° 0 mm 1 m/s 691 mmHg 91%
07:00 +22°C° 0 mm 1 m/s 691 mmHg 90%
08:00 +23°C° 0 mm 1 m/s 691 mmHg 84%
09:00 +24°C° 0 mm 1 m/s 692 mmHg 78%
10:00 +25°C° 0 mm 1 m/s 692 mmHg 72%
11:00 +27°C° 0 mm 1 m/s 691 mmHg 66%
12:00 +29°C° 0 mm 1 m/s 691 mmHg 59%
13:00 +31°C° 0 mm 2 m/s 690 mmHg 52%
14:00 +30°C° 0.2 mm 2 m/s 689 mmHg 53%
15:00 +30°C° 0.2 mm 2 m/s 689 mmHg 54%
16:00 +29°C° 0.2 mm 2 m/s 688 mmHg 55%
17:00 +28°C° 0.2 mm 2 m/s 689 mmHg 60%
18:00 +26°C° 0.2 mm 1 m/s 689 mmHg 66%
19:00 +25°C° 0.2 mm 1 m/s 689 mmHg 71%
20:00 +24°C° 0 mm 1 m/s 690 mmHg 74%
21:00 +24°C° 0 mm 1 m/s 690 mmHg 77%
22:00 +23°C° 0 mm 1 m/s 690 mmHg 80%
23:00 +22°C° 0 mm 1 m/s 690 mmHg 83%

2 Octobre, Vendredi

Heure Température Précipitation Vent Pression Humidité
00:00 +22°C° 0 mm 1 m/s 690 mmHg 85%
01:00 +21°C° 0 mm 1 m/s 690 mmHg 88%
02:00 +21°C° 0.2 mm 1 m/s 690 mmHg 90%
03:00 +21°C° 0.2 mm 1 m/s 690 mmHg 92%
04:00 +20°C° 0.2 mm 1 m/s 690 mmHg 94%
05:00 +21°C° 0.2 mm 1 m/s 690 mmHg 92%
06:00 +19°C° 0.2 mm 0 m/s 691 mmHg 90%
07:00 +19°C° 0.2 mm 0 m/s 691 mmHg 89%
08:00 +22°C° 0 mm 0 m/s 692 mmHg 79%
09:00 +24°C° 0 mm 0 m/s 692 mmHg 70%
10:00 +29°C° 0 mm 1 m/s 693 mmHg 61%
11:00 +30°C° 0.2 mm 1 m/s 692 mmHg 56%
12:00 +32°C° 0.2 mm 1 m/s 692 mmHg 51%
13:00 +34°C° 0.2 mm 1 m/s 691 mmHg 46%
14:00 +32°C° 1 mm 1 m/s 690 mmHg 51%
15:00 +31°C° 1 mm 1 m/s 689 mmHg 55%
16:00 +29°C° 1 mm 1 m/s 689 mmHg 59%
17:00 +28°C° 0.1 mm 1 m/s 689 mmHg 64%
18:00 +27°C° 0.1 mm 1 m/s 689 mmHg 69%
19:00 +23°C° 0.1 mm 0 m/s 690 mmHg 74%
20:00 +25°C° 0 mm 1 m/s 690 mmHg 77%
21:00 +24°C° 0 mm 1 m/s 691 mmHg 79%
22:00 +24°C° 0 mm 1 m/s 691 mmHg 81%
23:00 +23°C° 0 mm 1 m/s 691 mmHg 83%

3 Octobre, Samedi

Heure Température Précipitation Vent Pression Humidité
00:00 +22°C° 0 mm 1 m/s 691 mmHg 85%
01:00 +22°C° 0 mm 1 m/s 691 mmHg 87%
02:00 +21°C° 0 mm 1 m/s 691 mmHg 89%
03:00 +19°C° 0 mm 0 m/s 690 mmHg 91%
04:00 +19°C° 0 mm 0 m/s 690 mmHg 93%
05:00 +19°C° 0 mm 0 m/s 691 mmHg 90%
06:00 +20°C° 0 mm 0 m/s 691 mmHg 88%
07:00 +22°C° 0 mm 1 m/s 691 mmHg 85%
08:00 +25°C° 0 mm 1 m/s 692 mmHg 76%
09:00 +27°C° 0 mm 1 m/s 692 mmHg 66%
10:00 +29°C° 0 mm 1 m/s 693 mmHg 57%
11:00 +31°C° 0 mm 1 m/s 692 mmHg 52%
12:00 +33°C° 0 mm 1 m/s 691 mmHg 46%
13:00 +35°C° 0 mm 1 m/s 691 mmHg 41%
14:00 +34°C° 0.2 mm 1 m/s 690 mmHg 42%
15:00 +33°C° 0.2 mm 1 m/s 690 mmHg 44%
16:00 +32°C° 0.2 mm 1 m/s 689 mmHg 45%
17:00 +30°C° 0.1 mm 1 m/s 689 mmHg 52%
18:00 +29°C° 0.1 mm 1 m/s 689 mmHg 58%
19:00 +25°C° 0.1 mm 0 m/s 690 mmHg 65%
20:00 +26°C° 0.1 mm 1 m/s 690 mmHg 67%
21:00 +25°C° 0.1 mm 1 m/s 691 mmHg 69%
22:00 +24°C° 0.1 mm 1 m/s 692 mmHg 71%
23:00 +24°C° 0 mm 1 m/s 692 mmHg 74%

4 Octobre, Dimanche

Heure Température Précipitation Vent Pression Humidité
00:00 +23°C° 0 mm 1 m/s 691 mmHg 77%
01:00 +22°C° 0 mm 1 m/s 691 mmHg 81%
02:00 +20°C° 0.5 mm 0 m/s 691 mmHg 84%
03:00 +19°C° 0.5 mm 0 m/s 691 mmHg 88%
04:00 +19°C° 0.5 mm 0 m/s 690 mmHg 91%
05:00 +19°C° 0.5 mm 0 m/s 691 mmHg 91%
06:00 +19°C° 0.5 mm 0 m/s 691 mmHg 91%
07:00 +20°C° 0.5 mm 0 m/s 692 mmHg 91%
08:00 +22°C° 0 mm 0 m/s 692 mmHg 83%
09:00 +26°C° 0 mm 1 m/s 693 mmHg 75%
10:00 +28°C° 0 mm 1 m/s 693 mmHg 68%
11:00 +29°C° 0.1 mm 1 m/s 692 mmHg 62%
12:00 +31°C° 0.1 mm 1 m/s 692 mmHg 56%
13:00 +32°C° 0.1 mm 1 m/s 691 mmHg 49%
14:00 +32°C° 0.5 mm 1 m/s 691 mmHg 50%
15:00 +32°C° 0.5 mm 1 m/s 690 mmHg 50%
16:00 +31°C° 0.5 mm 1 m/s 690 mmHg 51%
17:00 +29°C° 0.2 mm 1 m/s 690 mmHg 59%
18:00 +27°C° 0.2 mm 1 m/s 690 mmHg 68%
19:00 +25°C° 0.2 mm 1 m/s 690 mmHg 77%
20:00 +24°C° 0 mm 1 m/s 691 mmHg 79%
21:00 +24°C° 0 mm 1 m/s 691 mmHg 82%
22:00 +21°C° 0 mm 0 m/s 692 mmHg 84%
23:00 +21°C° 0 mm 0 m/s 691 mmHg 84%
Voir plus

We Need Your Consent

Meteoprog and our Service Providers may store and access personal data such as cookies, device identifiers or other similar technologies on your device and process such data to personalise content and ads, as well as provide social media features and to analyse the traffic.

  • Store and/or access information on your device

    Cookies, device identifiers or other information can be stored or accessed on your device for the purposes indicated above.

  • Personalised ads and content, ad and content measurement, audience insights, and products development

    Ads and content can be personalised based on a profile. More data can be added to better personalise ads and content. Ad and content performance can be measured. Insights about the audience who saw the ads and content can be derived. Such data can be used to develop or improve user’s experience, systems and software.

By clicking ‘I Agree’ you will allow the use of indicated cookies, device identifiers, web beacons or other similar technologies. Your settings can be changed in the browser on your device.

For certain purposes, legitimate interests may be relied on, rather than consent. You can read more about this in our Privacy and Cookie Policy.